Year,Month,Day,Hour,Minute,Value (Times are PST for temperature in C)
2015,07,01,00,00,17.40
2015,07,01,00,01,17.40
2015,07,01,00,02,17.40
2015,07,01,00,03,17.40
2015,07,01,00,04,17.30
2015,07,01,00,05,17.30
2015,07,01,00,06,17.30
2015,07,01,00,07,17.20
2015,07,01,00,08,17.20
2015,07,01,00,09,17.20
2015,07,01,00,10,17.10
2015,07,01,00,11,17.10
2015,07,01,00,12,17.10
2015,07,01,00,13,17.10
2015,07,01,00,14,17.00
2015,07,01,00,15,17.00
2015,07,01,00,16,17.00
2015,07,01,00,17,17.00
2015,07,01,00,18,16.90
2015,07,01,00,19,16.90
2015,07,01,00,20,17.00
2015,07,01,00,21,17.00
2015,07,01,00,22,17.00
2015,07,01,00,23,17.00
2015,07,01,00,24,17.10
2015,07,01,00,25,17.00
2015,07,01,00,26,17.00
2015,07,01,00,27,17.00
2015,07,01,00,28,16.90
2015,07,01,00,29,16.90
2015,07,01,00,30,16.90
2015,07,01,00,31,16.90
2015,07,01,00,32,16.90
2015,07,01,00,33,16.90
2015,07,01,00,34,16.90
2015,07,01,00,35,16.80
2015,07,01,00,36,16.90
2015,07,01,00,37,16.80
2015,07,01,00,38,16.80
2015,07,01,00,39,16.80
2015,07,01,00,40,16.80
2015,07,01,00,41,16.80
2015,07,01,00,42,16.70
2015,07,01,00,43,16.70
2015,07,01,00,44,16.70
2015,07,01,00,45,16.70
2015,07,01,00,46,16.80
2015,07,01,00,47,16.80
2015,07,01,00,48,16.80
2015,07,01,00,49,16.80
2015,07,01,00,50,16.80
2015,07,01,00,51,16.80
2015,07,01,00,52,16.80
2015,07,01,00,53,16.90
2015,07,01,00,54,16.80
2015,07,01,00,55,16.80
2015,07,01,00,56,16.80
2015,07,01,00,57,16.80
2015,07,01,00,58,16.80
2015,07,01,00,59,16.80
2015,07,01,01,00,16.80
2015,07,01,01,01,16.70
2015,07,01,01,02,16.60
2015,07,01,01,03,16.50
2015,07,01,01,04,16.50
2015,07,01,01,05,16.40
2015,07,01,01,06,16.40
2015,07,01,01,07,16.30
2015,07,01,01,08,16.30
2015,07,01,01,09,16.30
2015,07,01,01,10,16.30
2015,07,01,01,11,16.30
2015,07,01,01,12,16.30
2015,07,01,01,13,16.20
2015,07,01,01,14,16.20
2015,07,01,01,15,16.10
2015,07,01,01,16,16.10
2015,07,01,01,17,16.00
2015,07,01,01,18,15.90
2015,07,01,01,19,15.90
2015,07,01,01,20,15.80
2015,07,01,01,21,15.70
2015,07,01,01,22,15.70
2015,07,01,01,23,15.70
2015,07,01,01,24,15.60
2015,07,01,01,25,15.60
2015,07,01,01,26,15.50
2015,07,01,01,27,15.50
2015,07,01,01,28,15.40
2015,07,01,01,29,15.40
2015,07,01,01,30,15.30
2015,07,01,01,31,15.30
2015,07,01,01,32,15.20
2015,07,01,01,33,15.20
2015,07,01,01,34,15.20
2015,07,01,01,35,15.20
2015,07,01,01,36,15.10
2015,07,01,01,37,15.10
2015,07,01,01,38,15.10
2015,07,01,01,39,15.10
2015,07,01,01,40,15.00
2015,07,01,01,41,15.00
2015,07,01,01,42,14.90
2015,07,01,01,43,14.90
2015,07,01,01,44,14.90
2015,07,01,01,45,14.80
2015,07,01,01,46,14.80
2015,07,01,01,47,14.80
2015,07,01,01,48,14.80
2015,07,01,01,49,14.70
2015,07,01,01,50,14.70
2015,07,01,01,51,14.70
2015,07,01,01,52,14.60
2015,07,01,01,53,14.60
2015,07,01,01,54,14.60
2015,07,01,01,55,14.50
2015,07,01,01,56,14.50
2015,07,01,01,57,14.40
2015,07,01,01,58,14.40
2015,07,01,01,59,14.40
2015,07,01,02,00,14.40
2015,07,01,02,01,14.30
2015,07,01,02,02,14.30
2015,07,01,02,03,14.30
2015,07,01,02,04,14.30
2015,07,01,02,05,14.30
2015,07,01,02,06,14.30
2015,07,01,02,07,14.20
2015,07,01,02,08,14.20
2015,07,01,02,09,14.20
2015,07,01,02,10,14.20
2015,07,01,02,11,14.20
2015,07,01,02,12,14.20
2015,07,01,02,13,14.20
2015,07,01,02,14,14.20
2015,07,01,02,15,14.20
2015,07,01,02,16,14.20
2015,07,01,02,17,14.20
2015,07,01,02,18,14.20
2015,07,01,02,19,14.20
2015,07,01,02,20,14.20
2015,07,01,02,21,14.10
2015,07,01,02,22,14.10
2015,07,01,02,23,14.10
2015,07,01,02,24,14.10
2015,07,01,02,25,14.10
2015,07,01,02,26,14.10
2015,07,01,02,27,14.10
2015,07,01,02,28,14.10
2015,07,01,02,29,14.10
2015,07,01,02,30,14.00
2015,07,01,02,31,14.00
2015,07,01,02,32,13.90
2015,07,01,02,33,13.90
2015,07,01,02,34,13.90
2015,07,01,02,35,13.90
2015,07,01,02,36,13.90
2015,07,01,02,37,13.90
2015,07,01,02,38,13.80
2015,07,01,02,39,13.80
2015,07,01,02,40,13.80
2015,07,01,02,41,13.80
2015,07,01,02,42,13.80
2015,07,01,02,43,13.80
2015,07,01,02,44,13.80
2015,07,01,02,45,13.80
2015,07,01,02,46,13.80
2015,07,01,02,47,13.80
2015,07,01,02,48,13.80
2015,07,01,02,49,13.80
2015,07,01,02,50,13.80
2015,07,01,02,51,13.70
2015,07,01,02,52,13.70
2015,07,01,02,53,13.70
2015,07,01,02,54,13.70
2015,07,01,02,55,13.70
2015,07,01,02,56,13.70
2015,07,01,02,57,13.70
2015,07,01,02,58,13.60
2015,07,01,02,59,13.60
2015,07,01,03,00,13.60
2015,07,01,03,01,13.60
2015,07,01,03,02,13.60
2015,07,01,03,03,13.60
2015,07,01,03,04,13.50
2015,07,01,03,05,13.50
2015,07,01,03,06,13.50
2015,07,01,03,07,13.40
2015,07,01,03,08,13.40
2015,07,01,03,09,13.40
2015,07,01,03,10,13.40
2015,07,01,03,11,13.40
2015,07,01,03,12,13.40
2015,07,01,03,13,13.30
2015,07,01,03,14,13.30
2015,07,01,03,15,13.30
2015,07,01,03,16,13.30
2015,07,01,03,17,13.30
2015,07,01,03,18,13.30
2015,07,01,03,19,13.30
2015,07,01,03,20,13.30
2015,07,01,03,21,13.30
2015,07,01,03,22,13.30
2015,07,01,03,23,13.30
2015,07,01,03,24,13.30
2015,07,01,03,25,13.30
2015,07,01,03,26,13.30
2015,07,01,03,27,13.20
2015,07,01,03,28,13.30
2015,07,01,03,29,13.20
2015,07,01,03,30,13.20
2015,07,01,03,31,13.20
2015,07,01,03,32,13.20
2015,07,01,03,33,13.20
2015,07,01,03,34,13.20
2015,07,01,03,35,13.10
2015,07,01,03,36,13.10
2015,07,01,03,37,13.10
2015,07,01,03,38,13.10
2015,07,01,03,39,13.10
2015,07,01,03,40,13.10
2015,07,01,03,41,13.00
2015,07,01,03,42,13.00
2015,07,01,03,43,13.00
2015,07,01,03,44,12.90
2015,07,01,03,45,12.90
2015,07,01,03,46,12.90
2015,07,01,03,47,12.90
2015,07,01,03,48,12.90
2015,07,01,03,49,12.80
2015,07,01,03,50,12.80
2015,07,01,03,51,12.80
2015,07,01,03,52,12.80
2015,07,01,03,53,12.80
2015,07,01,03,54,12.70
2015,07,01,03,55,12.70
2015,07,01,03,56,12.70
2015,07,01,03,57,12.70
2015,07,01,03,58,12.70
2015,07,01,03,59,12.70
2015,07,01,04,00,12.70
2015,07,01,04,01,12.70
2015,07,01,04,02,12.70
2015,07,01,04,03,12.60
2015,07,01,04,04,12.60
2015,07,01,04,05,12.60
2015,07,01,04,06,12.60
2015,07,01,04,07,12.60
2015,07,01,04,08,12.60
2015,07,01,04,09,12.60
2015,07,01,04,10,12.60
2015,07,01,04,11,12.60
2015,07,01,04,12,12.60
2015,07,01,04,13,12.60
2015,07,01,04,14,12.60
2015,07,01,04,15,12.60
2015,07,01,04,16,12.60
2015,07,01,04,17,12.60
2015,07,01,04,18,12.60
2015,07,01,04,19,12.60
2015,07,01,04,20,12.60
2015,07,01,04,21,12.50
2015,07,01,04,22,12.50
2015,07,01,04,23,12.50
2015,07,01,04,24,12.50
2015,07,01,04,25,12.50
2015,07,01,04,26,12.50
2015,07,01,04,27,12.40
2015,07,01,04,28,12.40
2015,07,01,04,29,12.40
2015,07,01,04,30,12.40
2015,07,01,04,31,12.50
2015,07,01,04,32,12.50
2015,07,01,04,33,12.50
2015,07,01,04,34,12.60
2015,07,01,04,35,12.60
2015,07,01,04,36,12.60
2015,07,01,04,37,12.60
2015,07,01,04,38,12.60
2015,07,01,04,39,12.70
2015,07,01,04,40,12.70
2015,07,01,04,41,12.70
2015,07,01,04,42,12.70
2015,07,01,04,43,12.70
2015,07,01,04,44,12.70
2015,07,01,04,45,12.70
2015,07,01,04,46,12.70
2015,07,01,04,47,12.70
2015,07,01,04,48,12.70
2015,07,01,04,49,12.70
2015,07,01,04,50,12.70
2015,07,01,04,51,12.70
2015,07,01,04,52,12.80
2015,07,01,04,53,12.80
2015,07,01,04,54,12.80
2015,07,01,04,55,12.80
2015,07,01,04,56,12.70
2015,07,01,04,57,12.70
2015,07,01,04,58,12.70
2015,07,01,04,59,12.60
2015,07,01,05,00,12.60
2015,07,01,05,01,12.60
2015,07,01,05,02,12.60
2015,07,01,05,03,12.50
2015,07,01,05,04,12.50
2015,07,01,05,05,12.40
2015,07,01,05,06,12.40
2015,07,01,05,07,12.40
2015,07,01,05,08,12.30
2015,07,01,05,09,12.30
2015,07,01,05,10,12.30
2015,07,01,05,11,12.30
2015,07,01,05,12,12.20
2015,07,01,05,13,12.20
2015,07,01,05,14,12.20
2015,07,01,05,15,12.20
2015,07,01,05,16,12.20
2015,07,01,05,17,12.20
2015,07,01,05,18,12.20
2015,07,01,05,19,12.20
2015,07,01,05,20,12.10
2015,07,01,05,21,12.10
2015,07,01,05,22,12.10
2015,07,01,05,23,12.10
2015,07,01,05,24,12.10
2015,07,01,05,25,12.00
2015,07,01,05,26,12.00
2015,07,01,05,27,12.00
2015,07,01,05,28,12.00
2015,07,01,05,29,12.00
2015,07,01,05,30,12.00
2015,07,01,05,31,12.00
2015,07,01,05,32,12.00
2015,07,01,05,33,12.10
2015,07,01,05,34,12.10
2015,07,01,05,35,12.10
2015,07,01,05,36,12.10
2015,07,01,05,37,12.10
2015,07,01,05,38,12.20
2015,07,01,05,39,12.20
2015,07,01,05,40,12.20
2015,07,01,05,41,12.20
2015,07,01,05,42,12.20
2015,07,01,05,43,12.30
2015,07,01,05,44,12.30
2015,07,01,05,45,12.30
2015,07,01,05,46,12.30
2015,07,01,05,47,12.30
2015,07,01,05,48,12.40
2015,07,01,05,49,12.40
2015,07,01,05,50,12.40
2015,07,01,05,51,12.40
2015,07,01,05,52,12.40
2015,07,01,05,53,12.40
2015,07,01,05,54,12.40
2015,07,01,05,55,12.40
2015,07,01,05,56,12.40
2015,07,01,05,57,12.50
2015,07,01,05,58,12.50
2015,07,01,05,59,12.50
2015,07,01,06,00,12.60
2015,07,01,06,01,12.60
2015,07,01,06,02,12.70
2015,07,01,06,03,12.70
2015,07,01,06,04,12.70
2015,07,01,06,05,12.80
2015,07,01,06,06,12.80
2015,07,01,06,07,12.80
2015,07,01,06,08,12.80
2015,07,01,06,09,12.90
2015,07,01,06,10,12.90
2015,07,01,06,11,12.90
2015,07,01,06,12,12.90
2015,07,01,06,13,13.00
2015,07,01,06,14,13.00
2015,07,01,06,15,13.00
2015,07,01,06,16,13.00
2015,07,01,06,17,13.10
2015,07,01,06,18,13.10
2015,07,01,06,19,13.10
2015,07,01,06,20,13.10
2015,07,01,06,21,13.20
2015,07,01,06,22,13.20
2015,07,01,06,23,13.20
2015,07,01,06,24,13.30
2015,07,01,06,25,13.30
2015,07,01,06,26,13.30
2015,07,01,06,27,13.30
2015,07,01,06,28,13.30
2015,07,01,06,29,13.40
2015,07,01,06,30,13.40
2015,07,01,06,31,13.40
2015,07,01,06,32,13.40
2015,07,01,06,33,13.40
2015,07,01,06,34,13.40
2015,07,01,06,35,13.50
2015,07,01,06,36,13.50
2015,07,01,06,37,13.50
2015,07,01,06,38,13.50
2015,07,01,06,39,13.60
2015,07,01,06,40,13.60
2015,07,01,06,41,13.60
2015,07,01,06,42,13.70
2015,07,01,06,43,13.70
2015,07,01,06,44,13.80
2015,07,01,06,45,13.80
2015,07,01,06,46,13.90
2015,07,01,06,47,14.00
2015,07,01,06,48,14.10
2015,07,01,06,49,14.10
2015,07,01,06,50,14.20
2015,07,01,06,51,14.30
2015,07,01,06,52,14.40
2015,07,01,06,53,14.50
2015,07,01,06,54,14.60
2015,07,01,06,55,14.70
2015,07,01,06,56,14.70
2015,07,01,06,57,14.80
2015,07,01,06,58,14.90
2015,07,01,06,59,15.00
2015,07,01,07,00,15.00
2015,07,01,07,01,15.10
2015,07,01,07,02,15.10
2015,07,01,07,03,15.10
2015,07,01,07,04,15.10
2015,07,01,07,05,15.20
2015,07,01,07,06,15.20
2015,07,01,07,07,15.20
2015,07,01,07,08,15.30
2015,07,01,07,09,15.30
2015,07,01,07,10,15.40
2015,07,01,07,11,15.40
2015,07,01,07,12,15.50
2015,07,01,07,13,15.50
2015,07,01,07,14,15.60
2015,07,01,07,15,15.60
2015,07,01,07,16,15.70
2015,07,01,07,17,15.80
2015,07,01,07,18,15.80
2015,07,01,07,19,15.90
2015,07,01,07,20,15.90
2015,07,01,07,21,16.00
2015,07,01,07,22,16.00
2015,07,01,07,23,16.10
2015,07,01,07,24,16.10
2015,07,01,07,25,16.10
2015,07,01,07,26,16.20
2015,07,01,07,27,16.20
2015,07,01,07,28,16.30
2015,07,01,07,29,16.30
2015,07,01,07,30,16.40
2015,07,01,07,31,16.40
2015,07,01,07,32,16.50
2015,07,01,07,33,16.50
2015,07,01,07,34,16.60
2015,07,01,07,35,16.60
2015,07,01,07,36,16.70
2015,07,01,07,37,16.70
2015,07,01,07,38,16.70
2015,07,01,07,39,16.80
2015,07,01,07,40,16.80
2015,07,01,07,41,16.80
2015,07,01,07,42,16.90
2015,07,01,07,43,16.90
2015,07,01,07,44,17.00
2015,07,01,07,45,17.00
2015,07,01,07,46,17.00
2015,07,01,07,47,17.00
2015,07,01,07,48,17.00
2015,07,01,07,49,17.10
2015,07,01,07,50,17.10
2015,07,01,07,51,17.10
2015,07,01,07,52,17.10
2015,07,01,07,53,17.20
2015,07,01,07,54,17.20
2015,07,01,07,55,17.30
2015,07,01,07,56,17.30
2015,07,01,07,57,17.40
2015,07,01,07,58,17.40
2015,07,01,07,59,17.50
2015,07,01,08,00,17.50
2015,07,01,08,01,17.60
2015,07,01,08,02,17.60
2015,07,01,08,03,17.60
2015,07,01,08,04,17.60
2015,07,01,08,05,17.70
2015,07,01,08,06,17.70
2015,07,01,08,07,17.70
2015,07,01,08,08,17.80
2015,07,01,08,09,17.80
2015,07,01,08,10,17.80
2015,07,01,08,11,17.80
2015,07,01,08,12,17.80
2015,07,01,08,13,17.80
2015,07,01,08,14,17.80
2015,07,01,08,15,17.80
2015,07,01,08,16,17.80
2015,07,01,08,17,17.80
2015,07,01,08,18,17.80
2015,07,01,08,19,17.80
2015,07,01,08,20,17.90
2015,07,01,08,21,17.90
2015,07,01,08,22,17.90
2015,07,01,08,23,17.90
2015,07,01,08,24,17.90
2015,07,01,08,25,17.90
2015,07,01,08,26,17.90
2015,07,01,08,27,17.90
2015,07,01,08,28,18.00
2015,07,01,08,29,18.10
2015,07,01,08,30,18.10
2015,07,01,08,31,18.20
2015,07,01,08,32,18.20
2015,07,01,08,33,18.30
2015,07,01,08,34,18.40
2015,07,01,08,35,18.40
2015,07,01,08,36,18.50
2015,07,01,08,37,18.50
2015,07,01,08,38,18.60
2015,07,01,08,39,18.60
2015,07,01,08,40,18.60
2015,07,01,08,41,18.60
2015,07,01,08,42,18.70
2015,07,01,08,43,18.70
2015,07,01,08,44,18.70
2015,07,01,08,45,18.70
2015,07,01,08,46,18.70
2015,07,01,08,47,18.80
2015,07,01,08,48,18.80
2015,07,01,08,49,18.80
2015,07,01,08,50,18.80
2015,07,01,08,51,18.90
2015,07,01,08,52,18.90
2015,07,01,08,53,19.00
2015,07,01,08,54,19.00
2015,07,01,08,55,19.10
2015,07,01,08,56,19.20
2015,07,01,08,57,19.30
2015,07,01,08,58,19.40
2015,07,01,08,59,19.40
2015,07,01,09,00,19.40
2015,07,01,09,01,19.50
2015,07,01,09,02,19.60
2015,07,01,09,03,19.60
2015,07,01,09,04,19.70
2015,07,01,09,05,19.80
2015,07,01,09,06,19.80
2015,07,01,09,07,19.80
2015,07,01,09,08,19.80
2015,07,01,09,09,19.80
2015,07,01,09,10,19.80
2015,07,01,09,11,19.90
2015,07,01,09,12,19.90
2015,07,01,09,13,20.00
2015,07,01,09,14,20.10
2015,07,01,09,15,20.20
2015,07,01,09,16,20.40
2015,07,01,09,17,20.50
2015,07,01,09,18,20.60
2015,07,01,09,19,20.60
2015,07,01,09,20,20.70
2015,07,01,09,21,20.70
2015,07,01,09,22,20.70
2015,07,01,09,23,20.70
2015,07,01,09,24,20.80
2015,07,01,09,25,20.80
2015,07,01,09,26,20.70
2015,07,01,09,27,20.60
2015,07,01,09,28,20.60
2015,07,01,09,29,20.60
2015,07,01,09,30,20.60
2015,07,01,09,31,20.60
2015,07,01,09,32,20.60
2015,07,01,09,33,20.60
2015,07,01,09,34,20.60
2015,07,01,09,35,20.70
2015,07,01,09,36,20.80
2015,07,01,09,37,20.80
2015,07,01,09,38,20.90
2015,07,01,09,39,20.90
2015,07,01,09,40,20.90
2015,07,01,09,41,20.90
2015,07,01,09,42,20.90
2015,07,01,09,43,20.90
2015,07,01,09,44,21.00
2015,07,01,09,45,21.10
2015,07,01,09,46,21.20
2015,07,01,09,47,21.30
2015,07,01,09,48,21.50
2015,07,01,09,49,21.50
2015,07,01,09,50,21.60
2015,07,01,09,51,21.60
2015,07,01,09,52,21.60
2015,07,01,09,53,21.60
2015,07,01,09,54,21.70
2015,07,01,09,55,21.70
2015,07,01,09,56,21.70
2015,07,01,09,57,21.70
2015,07,01,09,58,21.70
2015,07,01,09,59,21.70
2015,07,01,10,00,21.70
2015,07,01,10,01,21.70
2015,07,01,10,02,21.70
2015,07,01,10,03,21.70
2015,07,01,10,04,21.80
2015,07,01,10,05,21.80
2015,07,01,10,06,21.90
2015,07,01,10,07,21.90
2015,07,01,10,08,21.90
2015,07,01,10,09,21.90
2015,07,01,10,10,21.90
2015,07,01,10,11,21.90
2015,07,01,10,12,22.00
2015,07,01,10,13,22.10
2015,07,01,10,14,22.20
2015,07,01,10,15,22.20
2015,07,01,10,16,22.20
2015,07,01,10,17,22.30
2015,07,01,10,18,22.40
2015,07,01,10,19,22.50
2015,07,01,10,20,22.50
2015,07,01,10,21,22.40
2015,07,01,10,22,22.40
2015,07,01,10,23,22.40
2015,07,01,10,24,22.50
2015,07,01,10,25,22.60
2015,07,01,10,26,22.50
2015,07,01,10,27,22.50
2015,07,01,10,28,22.40
2015,07,01,10,29,22.50
2015,07,01,10,30,22.50
2015,07,01,10,31,22.60
2015,07,01,10,32,22.70
2015,07,01,10,33,22.80
2015,07,01,10,34,22.90
2015,07,01,10,35,23.00
2015,07,01,10,36,23.00
2015,07,01,10,37,22.90
2015,07,01,10,38,22.90
2015,07,01,10,39,22.80
2015,07,01,10,40,22.80
2015,07,01,10,41,22.90
2015,07,01,10,42,23.00
2015,07,01,10,43,23.20
2015,07,01,10,44,23.10
2015,07,01,10,45,23.00
2015,07,01,10,46,23.00
2015,07,01,10,47,23.00
2015,07,01,10,48,23.10
2015,07,01,10,49,23.20
2015,07,01,10,50,23.20
2015,07,01,10,51,23.10
2015,07,01,10,52,23.10
2015,07,01,10,53,23.00
2015,07,01,10,54,23.00
2015,07,01,10,55,23.10
2015,07,01,10,56,23.10
2015,07,01,10,57,23.20
2015,07,01,10,58,23.30
2015,07,01,10,59,23.40
2015,07,01,11,00,23.40
2015,07,01,11,01,23.50
2015,07,01,11,02,23.60
2015,07,01,11,03,23.70
2015,07,01,11,04,23.70
2015,07,01,11,05,23.80
2015,07,01,11,06,23.80
2015,07,01,11,07,23.90
2015,07,01,11,08,23.90
2015,07,01,11,09,24.00
2015,07,01,11,10,24.00
2015,07,01,11,11,24.00
2015,07,01,11,12,24.00
2015,07,01,11,13,24.00
2015,07,01,11,14,23.90
2015,07,01,11,15,23.90
2015,07,01,11,16,23.90
2015,07,01,11,17,23.90
2015,07,01,11,18,23.90
2015,07,01,11,19,23.90
2015,07,01,11,20,24.00
2015,07,01,11,21,23.90
2015,07,01,11,22,23.90
2015,07,01,11,23,23.90
2015,07,01,11,24,23.80
2015,07,01,11,25,23.90
2015,07,01,11,26,23.90
2015,07,01,11,27,24.00
2015,07,01,11,28,24.10
2015,07,01,11,29,24.20
2015,07,01,11,30,24.30
2015,07,01,11,31,24.40
2015,07,01,11,32,24.60
2015,07,01,11,33,24.70
2015,07,01,11,34,24.70
2015,07,01,11,35,24.70
2015,07,01,11,36,24.60
2015,07,01,11,37,24.50
2015,07,01,11,38,24.40
2015,07,01,11,39,24.40
2015,07,01,11,40,24.30
2015,07,01,11,41,24.20
2015,07,01,11,42,24.10
2015,07,01,11,43,24.20
2015,07,01,11,44,24.20
2015,07,01,11,45,24.30
2015,07,01,11,46,24.30
2015,07,01,11,47,24.40
2015,07,01,11,48,24.40
2015,07,01,11,49,24.50
2015,07,01,11,50,24.60
2015,07,01,11,51,24.50
2015,07,01,11,52,24.50
2015,07,01,11,53,24.50
2015,07,01,11,54,24.40
2015,07,01,11,55,24.30
2015,07,01,11,56,24.30
2015,07,01,11,57,24.30
2015,07,01,11,58,24.20
2015,07,01,11,59,24.30
2015,07,01,12,00,24.30
2015,07,01,12,01,24.40
2015,07,01,12,02,24.50
2015,07,01,12,03,24.70
2015,07,01,12,04,24.80
2015,07,01,12,05,24.90
2015,07,01,12,06,25.00
2015,07,01,12,07,25.10
2015,07,01,12,08,25.20
2015,07,01,12,09,25.30
2015,07,01,12,10,25.40
2015,07,01,12,11,25.50
2015,07,01,12,12,25.50
2015,07,01,12,13,25.60
2015,07,01,12,14,25.70
2015,07,01,12,15,25.70
2015,07,01,12,16,25.70
2015,07,01,12,17,25.70
2015,07,01,12,18,25.60
2015,07,01,12,19,25.50
2015,07,01,12,20,25.30
2015,07,01,12,21,25.20
2015,07,01,12,22,25.20
2015,07,01,12,23,25.20
2015,07,01,12,24,25.20
2015,07,01,12,25,25.20
2015,07,01,12,26,25.20
2015,07,01,12,27,25.10
2015,07,01,12,28,25.20
2015,07,01,12,29,25.20
2015,07,01,12,30,25.30
2015,07,01,12,31,25.40
2015,07,01,12,32,25.50
2015,07,01,12,33,25.70
2015,07,01,12,34,25.70
2015,07,01,12,35,25.80
2015,07,01,12,36,25.90
2015,07,01,12,37,26.00
2015,07,01,12,38,26.10
2015,07,01,12,39,26.10
2015,07,01,12,40,26.00
2015,07,01,12,41,25.90
2015,07,01,12,42,25.70
2015,07,01,12,43,25.50
2015,07,01,12,44,25.40
2015,07,01,12,45,25.40
2015,07,01,12,46,25.40
2015,07,01,12,47,25.40
2015,07,01,12,48,25.50
2015,07,01,12,49,25.60
2015,07,01,12,50,25.70
2015,07,01,12,51,25.90
2015,07,01,12,52,26.00
2015,07,01,12,53,26.10
2015,07,01,12,54,26.20
2015,07,01,12,55,26.30
2015,07,01,12,56,26.30
2015,07,01,12,57,26.40
2015,07,01,12,58,26.50
2015,07,01,12,59,26.70
2015,07,01,13,00,26.80
2015,07,01,13,01,26.80
2015,07,01,13,02,26.80
2015,07,01,13,03,26.70
2015,07,01,13,04,26.70
2015,07,01,13,05,26.80
2015,07,01,13,06,26.80
2015,07,01,13,07,26.80
2015,07,01,13,08,26.90
2015,07,01,13,09,26.80
2015,07,01,13,10,26.80
2015,07,01,13,11,26.90
2015,07,01,13,12,26.90
2015,07,01,13,13,26.90
2015,07,01,13,14,26.90
2015,07,01,13,15,26.90
2015,07,01,13,16,27.00
2015,07,01,13,17,27.00
2015,07,01,13,18,26.90
2015,07,01,13,19,26.80
2015,07,01,13,20,26.70
2015,07,01,13,21,26.60
2015,07,01,13,22,26.60
2015,07,01,13,23,26.60
2015,07,01,13,24,26.70
2015,07,01,13,25,26.90
2015,07,01,13,26,27.00
2015,07,01,13,27,27.00
2015,07,01,13,28,27.10
2015,07,01,13,29,27.20
2015,07,01,13,30,27.30
2015,07,01,13,31,27.30
2015,07,01,13,32,27.20
2015,07,01,13,33,27.20
2015,07,01,13,34,27.20
2015,07,01,13,35,27.10
2015,07,01,13,36,27.20
2015,07,01,13,37,27.20
2015,07,01,13,38,27.20
2015,07,01,13,39,27.20
2015,07,01,13,40,27.20
2015,07,01,13,41,27.30
2015,07,01,13,42,27.40
2015,07,01,13,43,27.50
2015,07,01,13,44,27.60
2015,07,01,13,45,27.70
2015,07,01,13,46,27.70
2015,07,01,13,47,27.70
2015,07,01,13,48,27.70
2015,07,01,13,49,27.80
2015,07,01,13,50,27.90
2015,07,01,13,51,27.90
2015,07,01,13,52,28.00
2015,07,01,13,53,28.00
2015,07,01,13,54,28.10
2015,07,01,13,55,28.10
2015,07,01,13,56,28.10
2015,07,01,13,57,28.10
2015,07,01,13,58,28.10
2015,07,01,13,59,28.20
2015,07,01,14,00,28.20
2015,07,01,14,01,28.20
2015,07,01,14,02,28.20
2015,07,01,14,03,28.20
2015,07,01,14,04,28.10
2015,07,01,14,05,28.00
2015,07,01,14,06,27.90
2015,07,01,14,07,27.80
2015,07,01,14,08,27.80
2015,07,01,14,09,27.90
2015,07,01,14,10,28.00
2015,07,01,14,11,28.00
2015,07,01,14,12,28.10
2015,07,01,14,13,28.20
2015,07,01,14,14,28.20
2015,07,01,14,15,28.20
2015,07,01,14,16,28.20
2015,07,01,14,17,28.20
2015,07,01,14,18,28.20
2015,07,01,14,19,28.30
2015,07,01,14,20,28.30
2015,07,01,14,21,28.20
2015,07,01,14,22,28.20
2015,07,01,14,23,28.10
2015,07,01,14,24,28.20
2015,07,01,14,25,28.20
2015,07,01,14,26,28.20
2015,07,01,14,27,28.20
2015,07,01,14,28,28.20
2015,07,01,14,29,28.30
2015,07,01,14,30,28.30
2015,07,01,14,31,28.30
2015,07,01,14,32,28.30
2015,07,01,14,33,28.30
2015,07,01,14,34,28.30
2015,07,01,14,35,28.30
2015,07,01,14,36,28.30
2015,07,01,14,37,28.30
2015,07,01,14,38,28.40
2015,07,01,14,39,28.40
2015,07,01,14,40,28.50
2015,07,01,14,41,28.60
2015,07,01,14,42,28.60
2015,07,01,14,43,28.70
2015,07,01,14,44,28.70
2015,07,01,14,45,28.70
2015,07,01,14,46,28.80
2015,07,01,14,47,28.80
2015,07,01,14,48,28.80
2015,07,01,14,49,28.90
2015,07,01,14,50,28.90
2015,07,01,14,51,29.00
2015,07,01,14,52,29.00
2015,07,01,14,53,29.00
2015,07,01,14,54,28.90
2015,07,01,14,55,28.90
2015,07,01,14,56,28.90
2015,07,01,14,57,28.90
2015,07,01,14,58,29.00
2015,07,01,14,59,29.10
2015,07,01,15,00,29.10
2015,07,01,15,01,29.20
2015,07,01,15,02,29.30
2015,07,01,15,03,29.40
2015,07,01,15,04,29.40
2015,07,01,15,05,29.40
2015,07,01,15,06,29.30
2015,07,01,15,07,29.20
2015,07,01,15,08,29.20
2015,07,01,15,09,29.30
2015,07,01,15,10,29.30
2015,07,01,15,11,29.30
2015,07,01,15,12,29.40
2015,07,01,15,13,29.40
2015,07,01,15,14,29.40
2015,07,01,15,15,29.40
2015,07,01,15,16,29.40
2015,07,01,15,17,29.40
2015,07,01,15,18,29.50
2015,07,01,15,19,29.50
2015,07,01,15,20,29.50
2015,07,01,15,21,29.50
2015,07,01,15,22,29.40
2015,07,01,15,23,29.40
2015,07,01,15,24,29.50
2015,07,01,15,25,29.50
2015,07,01,15,26,29.50
2015,07,01,15,27,29.50
2015,07,01,15,28,29.50
2015,07,01,15,29,29.50
2015,07,01,15,30,29.50
2015,07,01,15,31,29.50
2015,07,01,15,32,29.50
2015,07,01,15,33,29.50
2015,07,01,15,34,29.40
2015,07,01,15,35,29.40
2015,07,01,15,36,29.50
2015,07,01,15,37,29.50
2015,07,01,15,38,29.50
2015,07,01,15,39,29.50
2015,07,01,15,40,29.40
2015,07,01,15,41,29.40
2015,07,01,15,42,29.30
2015,07,01,15,43,29.30
2015,07,01,15,44,29.40
2015,07,01,15,45,29.50
2015,07,01,15,46,29.60
2015,07,01,15,47,29.60
2015,07,01,15,48,29.70
2015,07,01,15,49,29.70
2015,07,01,15,50,29.70
2015,07,01,15,51,29.80
2015,07,01,15,52,29.90
2015,07,01,15,53,29.90
2015,07,01,15,54,30.00
2015,07,01,15,55,29.90
2015,07,01,15,56,29.90
2015,07,01,15,57,29.90
2015,07,01,15,58,29.80
2015,07,01,15,59,29.80
2015,07,01,16,00,29.70
2015,07,01,16,01,29.80
2015,07,01,16,02,29.80
2015,07,01,16,03,29.80
2015,07,01,16,04,29.80
2015,07,01,16,05,29.80
2015,07,01,16,06,29.70
2015,07,01,16,07,29.70
2015,07,01,16,08,29.70
2015,07,01,16,09,29.80
2015,07,01,16,10,29.80
2015,07,01,16,11,29.80
2015,07,01,16,12,29.80
2015,07,01,16,13,29.80
2015,07,01,16,14,29.90
2015,07,01,16,15,29.90
2015,07,01,16,16,30.00
2015,07,01,16,17,30.10
2015,07,01,16,18,30.10
2015,07,01,16,19,30.20
2015,07,01,16,20,30.20
2015,07,01,16,21,30.20
2015,07,01,16,22,30.20
2015,07,01,16,23,30.20
2015,07,01,16,24,30.20
2015,07,01,16,25,30.30
2015,07,01,16,26,30.30
2015,07,01,16,27,30.30
2015,07,01,16,28,30.30
2015,07,01,16,29,30.30
2015,07,01,16,30,30.30
2015,07,01,16,31,30.20
2015,07,01,16,32,30.20
2015,07,01,16,33,30.20
2015,07,01,16,34,30.20
2015,07,01,16,35,30.20
2015,07,01,16,36,30.10
2015,07,01,16,37,30.10
2015,07,01,16,38,30.10
2015,07,01,16,39,30.20
2015,07,01,16,40,30.20
2015,07,01,16,41,30.30
2015,07,01,16,42,30.30
2015,07,01,16,43,30.40
2015,07,01,16,44,30.40
2015,07,01,16,45,30.40
2015,07,01,16,46,30.30
2015,07,01,16,47,30.40
2015,07,01,16,48,30.40
2015,07,01,16,49,30.40
2015,07,01,16,50,30.50
2015,07,01,16,51,30.50
2015,07,01,16,52,30.50
2015,07,01,16,53,30.60
2015,07,01,16,54,30.60
2015,07,01,16,55,30.60
2015,07,01,16,56,30.60
2015,07,01,16,57,30.50
2015,07,01,16,58,30.50
2015,07,01,16,59,30.40
2015,07,01,17,00,30.30
2015,07,01,17,01,30.30
2015,07,01,17,02,30.30
2015,07,01,17,03,30.30
2015,07,01,17,04,30.40
2015,07,01,17,05,30.50
2015,07,01,17,06,30.60
2015,07,01,17,07,30.70
2015,07,01,17,08,30.80
2015,07,01,17,09,30.90
2015,07,01,17,10,30.90
2015,07,01,17,11,30.90
2015,07,01,17,12,30.90
2015,07,01,17,13,30.90
2015,07,01,17,14,30.90
2015,07,01,17,15,30.90
2015,07,01,17,16,31.00
2015,07,01,17,17,31.00
2015,07,01,17,18,31.10
2015,07,01,17,19,31.10